User: anonymous   Login
Location: Les Salelles
(44.4192°N, 4.1044°E)
Time: 02:57:55
(UTC+00:00)
Language:

RESURS DK-1 - Orbit

View from above orbital plane
View from above orbital plane
View from above satellite
View from above satellite

Ground track
Ground track

The orbit data is extracted from the following two-line orbital elements,

1 29228U 06021A   21107.77367122  .00000115  00000-0  15954-4 0  9993
2 29228  69.9339 133.2150 0005841 321.8323  38.2424 15.02673251818450
Epoch (UTC): 17 April 2021 18:34:05
Eccentricity: 0.0005841
inclination: 69.9339°
perigee height: 554 km
apogee height: 563 km
right ascension of ascending node: 133.2150°
argument of perigee: 321.8323°
revolutions per day: 15.02673251
mean anomaly at epoch: 38.2424°
orbit number at epoch: 81845

The dashed part of the orbit path shows where the satellite is in the earth's shadow,  

DLR